Wind_Speed
34 32 44 42 46 36 37 38 36 23 27 30 24 23 8 15 13 16 18 17 18 22 28 32 33 36 38 36 35 33 30 33 33 30 27 25 25 22 20 19 19 17 17 17
24 29 47 45 47 40 42 26 34 23 19 29 28 25 22 17 14 11 11 15 15 22 28 31 33 37 39 37 37 37 35 35 35 33 32 31 28 28 26 22 20 20 19 19
12 11 35 53 31 31 23 20 33 36 24 28 29 28 24 28 15 15 10 12 15 16 21 31 33 38 41 41 41 41 39 39 37 36 36 36 34 31 31 28 25 23 22 23
9 12 26 43 31 26 23 19 22 15 18 16 23 22 21 22 23 22 17 13 14 16 20 26 36 40 43 46 45 44 42 42 45 44 45 46 40 37 35 33 31 28 27 27
7 11 18 19 22 23 25 24 28 28 16 18 19 20 23 24 23 23 20 18 15 14 17 22 27 34 46 48 46 44 47 42 46 40 46 49 46 43 38 37 37 36 32 33
12 13 20 19 22 25 28 26 22 24 23 24 27 26 24 27 26 26 20 20 19 19 18 15 29 38 37 48 52 49 45 39 48 44 48 46 48 47 44 42 41 41 39 35
7 9 6 7 24 41 41 36 31 23 18 22 22 20 18 18 20 24 21 17 19 16 17 17 19 22 39 39 46 49 50 46 47 43 45 50 54 49 49 47 49 46 43 39
1 10 6 7 21 25 26 26 27 22 25 21 17 17 17 15 16 17 19 20 18 18 18 19 18 19 23 43 49 46 49 50 50 50 51 51 53 47 51 53 57 54 53 47
6 14 10 12 24 20 16 12 10 8 9 13 15 19 22 20 19 18 19 22 21 18 15 18 20 20 24 20 32 52 53 60 61 60 54 49 47 66 59 65 69 74 67 61
7 6 8 14 15 15 14 13 13 13 13 13 18 20 18 21 23 22 21 22 22 20 20 20 19 22 19 19 17 20 21 31 41 46 51 52 54 63 59 63 57 53 46 56
11 1 7 9 10 11 11 10 11 12 14 17 17 17 20 23 22 22 22 22 23 19 17 16 18 18 14 13 15 15 16 18 21 22 21 22 23 28 31 35 36 35 40 45
8 6 1 4 5 5 5 10 13 13 15 19 21 19 17 17 16 18 19 19 20 21 20 19 19 20 18 17 20 20 18 18 18 18 17 20 23 26 28 28 28 29 32 34
3 6 10 7 4 6 9 10 9 9 12 15 14 15 14 19 15 16 16 17 17 18 20 20 20 21 25 26 25 23 21 22 22 23 21 20 20 22 24 24 25 25 27 27
8 8 10 13 13 12 11 9 7 9 11 13 12 12 13 14 22 19 16 16 16 16 16 17 19 20 22 24 23 22 22 21 21 21 23 24 24 24 26 27 29 30 31 33
12 14 13 12 14 12 10 10 10 11 10 13 15 18 16 16 16 17 20 22 25 27 27 27 26 24 25 26 26 28 28 29 30 32 31 33 36 36 37 37 37 38 40 41
13 16 11 11 11 8 6 5 6 8 7 9 12 13 14 16 18 18 18 20 21 23 24 24 25 27 29 31 32 34 37 39 40 41 41 41 43 44 45 44 44 46 47 49
10 12 12 8 5 5 4 8 11 12 14 16 18 20 21 21 23 24 26 27 27 28 28 29 30 31 32 33 34 36 37 40 43 44 45 47 48 49 49 49 50 51 52 54
7 7 6 3 3 4 7 10 14 18 21 25 27 26 27 28 29 32 34 35 37 39 39 40 40 40 40 41 42 43 44 45 45 46 47 48 49 50 51 52 54 55 56 56
5 4 3 3 6 10 14 19 23 28 31 31 28 28 30 31 33 35 37 38 40 42 44 46 47 49 50 51 52 53 53 54 54 53 54 55 55 57 58 59 59 59 62 63
4 5 7 10 14 19 23 27 30 25 26 28 30 31 33 34 36 39 41 42 44 45 46 47 48 48 49 50 51 51 52 52 54 55 56 57 59 60 61 61 61 62 63 63
8 11 15 20 21 19 18 22 23 25 27 29 31 33 36 38 40 42 45 47 47 48 50 50 51 53 53 54 56 57 58 58 59 59 60 60 60 60 61 61 61 61 62 63
15 13 11 12 13 15 18 20 22 25 28 30 33 36 39 43 46 49 50 50 50 50 52 52 53 54 54 54 54 55 56 57 57 58 59 60 61 61 62 62 63 63 64 64
5 6 9 11 13 15 18 22 27 30 34 37 40 43 46 48 50 50 52 54 55 55 55 54 55 55 56 57 58 58 59 59 60 60 61 62 63 64 65 66 66 67 68 69
7 10 13 17 19 22 24 28 32 36 40 44 46 49 52 54 51 49 50 50 50 51 52 53 55 56 57 57 58 59 59 59 60 61 62 63 64 65 65 66 67 67 68 68
15 18 21 23 26 28 32 35 38 42 46 49 51 53 55 54 53 52 52 53 53 54 56 57 58 59 60 61 62 63 63 63 64 64 64 65 65 66 66 66 67 67 67 67
20 23 26 29 32 34 37 40 43 46 49 51 51 53 52 53 55 57 60 61 61 60 58 56 55 55 55 55 55 55 56 57 57 58 58 58 58 57 57 57 56 55 55 54
26 29 32 35 38 41 43 46 48 51 53 54 55 53 52 57 60 58 54 50 48 46 45 44 44 44 44 44 44 45 46 46 47 47 47 47 47 47 47 47 46 46 46 46
Wind_Direction
255 242 213 212 219 223 232 234 243 247 258 259 261 266 288 284 263 250 246 250 248 240 227 222 224 226 227 221 223 225 219 221 222 223 231 235 242 245 245 246 250 256 260 260
266 232 217 209 212 218 228 253 234 232 237 254 256 263 273 281 268 272 259 256 253 242 231 224 222 222 221 218 218 222 227 226 228 230 232 235 237 241 244 247 251 249 251 256
260 256 224 217 192 209 217 237 239 237 233 244 250 253 255 269 272 276 279 283 262 245 231 228 224 221 223 221 221 223 228 238 243 242 238 242 236 239 246 244 245 249 255 253
248 255 219 205 232 235 222 219 206 191 218 229 239 247 258 268 269 276 275 279 277 276 258 238 229 225 223 225 225 227 233 240 244 244 256 247 241 241 243 246 248 245 253 256
233 215 187 201 211 205 226 236 252 257 251 237 245 252 263 268 268 280 277 276 267 276 267 239 237 231 230 224 227 231 233 239 245 247 241 241 239 242 244 250 250 250 255 249
203 215 176 194 208 217 196 229 239 250 258 253 265 269 267 265 270 272 274 272 266 263 269 264 232 244 244 220 226 233 238 243 247 246 239 245 246 244 246 248 250 249 250 255
208 210 286 299 180 204 209 221 223 229 251 244 235 250 259 263 265 266 266 256 266 271 267 260 274 255 239 225 226 232 234 243 244 246 234 247 241 250 249 250 246 248 249 250
27 302 278 248 173 184 205 216 221 237 242 246 260 249 258 269 270 268 263 256 253 263 274 273 274 265 264 247 237 234 233 241 241 237 250 251 240 245 256 247 249 251 248 244
118 143 141 168 168 181 180 186 192 201 238 255 261 266 263 270 272 274 268 257 252 251 262 274 265 263 258 255 247 241 233 234 237 226 240 249 237 238 242 251 233 242 238 248
261 83 152 161 160 169 185 201 218 229 233 250 254 261 267 267 267 273 274 261 254 249 254 270 267 260 257 251 253 247 254 247 241 241 242 237 231 234 242 236 238 243 246 244
262 328 154 172 187 198 207 224 246 268 275 274 263 270 256 261 265 271 272 261 253 252 249 251 249 241 242 267 271 265 257 255 251 246 242 244 248 251 250 246 247 248 252 251
262 262 285 199 201 212 232 249 265 295 290 272 262 270 264 244 255 264 261 259 261 256 258 253 254 254 261 262 267 266 264 262 263 264 258 255 250 256 258 259 252 253 254 256
220 216 202 206 275 279 276 282 299 308 308 292 271 267 268 234 252 242 248 245 243 247 255 250 252 259 262 265 266 268 271 271 271 270 271 264 259 252 251 254 259 262 261 261
224 230 215 231 235 276 273 277 296 284 289 291 264 263 278 277 252 266 263 260 262 265 254 254 252 253 257 262 267 269 268 271 268 271 265 271 276 284 277 269 267 266 265 266
228 212 231 254 257 266 261 271 287 286 303 284 275 271 275 275 273 271 274 277 275 274 272 276 272 267 264 265 266 271 275 273 270 269 270 267 271 276 279 271 269 269 268 266
238 220 219 209 216 236 253 262 286 298 301 303 301 297 288 281 271 276 279 280 279 278 276 276 275 274 273 270 268 266 265 265 267 269 268 268 268 269 271 267 265 265 264 264
168 174 184 187 202 221 261 322 311 306 304 302 298 293 290 287 286 285 282 281 281 279 276 275 274 274 274 274 273 271 269 268 266 265 265 266 265 266 268 268 269 269 270 270
158 146 151 194 259 277 291 307 316 314 310 311 304 293 289 286 285 283 281 278 277 277 277 277 276 275 275 274 274 273 273 271 270 269 269 269 269 269 270 271 271 271 272 273
133 182 226 286 307 303 298 300 302 306 303 303 299 295 292 289 287 285 283 281 279 278 277 276 275 274 275 274 274 274 273 273 273 272 272 272 272 272 272 272 273 274 275 275
37 3 323 296 291 291 298 305 301 302 301 301 300 298 296 293 290 288 285 283 281 280 279 278 276 275 274 274 274 273 273 274 274 274 274 275 275 275 274 274 274 274 274 274
315 295 295 305 312 314 314 311 311 310 308 306 305 303 301 297 294 292 289 286 284 282 280 278 277 277 276 275 275 274 274 274 275 276 276 276 275 276 277 277 277 276 276 277
311 315 317 318 318 318 318 320 319 318 315 312 311 310 306 301 296 291 289 288 285 283 282 281 280 279 278 277 276 276 275 274 274 275 275 275 276 276 276 277 277 277 278 278
311 306 308 307 307 317 322 323 323 321 319 316 312 309 306 302 297 292 289 288 287 285 284 282 281 279 278 277 276 275 275 274 274 273 273 273 274 274 274 275 276 276 277 278
274 290 293 296 304 309 311 315 320 320 320 319 313 309 305 303 301 297 295 291 287 285 283 282 282 281 280 279 278 277 276 276 275 275 275 275 275 275 275 275 275 275 276 277
282 289 296 301 306 311 315 319 320 319 320 317 313 309 305 304 302 299 295 292 290 288 286 284 283 282 280 279 279 278 278 278 277 277 276 276 276 276 276 276 276 276 277 278
295 301 307 310 313 316 317 317 319 318 318 315 312 308 306 304 302 300 297 295 293 292 290 288 286 284 282 280 279 278 277 277 277 277 277 277 276 277 276 276 276 276 276 276
308 313 315 315 316 318 318 319 320 320 318 317 314 311 308 306 303 301 299 298 296 294 292 290 288 286 285 283 281 280 279 278 278 277 276 276 276 276 276 276 275 275 275 275
Height
5526 5533 5539 5545 5555 5562 5566 5568 5568 5573 5575 5576 5579 5578 5581 5580 5582 5584 5587 5588 5589 5592 5596 5601 5606 5610 5614 5620 5622 5626 5632 5635 5639 5642 5646 5650 5652 5655 5656 5659 5660 5662 5663 5665
5518 5523 5526 5531 5545 5553 5557 5560 5564 5568 5570 5569 5573 5574 5575 5576 5578 5580 5582 5583 5585 5587 5590 5594 5599 5604 5608 5613 5617 5621 5624 5628 5632 5636 5639 5643 5646 5648 5650 5652 5655 5657 5658 5660
5515 5516 5519 5527 5543 5549 5554 5555 5557 5561 5563 5565 5566 5568 5571 5572 5574 5577 5578 5579 5581 5582 5584 5587 5591 5597 5602 5607 5611 5614 5618 5621 5625 5629 5632 5634 5638 5642 5644 5646 5649 5651 5653 5655
5512 5512 5515 5528 5533 5537 5543 5549 5552 5553 5555 5555 5561 5564 5566 5568 5570 5573 5574 5576 5576 5577 5577 5580 5584 5589 5594 5598 5603 5607 5612 5615 5618 5621 5623 5626 5629 5633 5636 5638 5642 5644 5646 5648
5509 5511 5517 5525 5532 5535 5539 5545 5546 5549 5552 5554 5557 5560 5561 5563 5566 5568 5571 5572 5572 5572 5573 5573 5576 5581 5585 5589 5594 5598 5603 5606 5609 5611 5613 5616 5619 5622 5626 5629 5632 5635 5638 5640
5509 5512 5516 5523 5527 5531 5531 5538 5543 5544 5547 5552 5554 5556 5558 5559 5561 5563 5565 5567 5567 5568 5568 5569 5570 5572 5575 5579 5584 5588 5593 5597 5599 5602 5605 5607 5610 5613 5615 5618 5622 5624 5626 5628
5511 5514 5516 5517 5521 5522 5529 5538 5539 5542 5545 5548 5552 5554 5555 5556 5557 5558 5560 5561 5561 5561 5563 5564 5565 5565 5567 5571 5575 5579 5583 5586 5589 5591 5588 5595 5596 5602 5605 5607 5610 5613 5615 5617
5511 5512 5514 5512 5515 5521 5528 5532 5536 5539 5542 5545 5547 5548 5550 5551 5552 5553 5554 5555 5555 5556 5556 5557 5558 5560 5561 5563 5566 5567 5571 5575 5577 5577 5583 5585 5585 5589 5592 5596 5599 5598 5603 5605
5513 5512 5512 5514 5516 5520 5525 5530 5534 5537 5539 5541 5542 5544 5545 5546 5547 5547 5548 5548 5549 5550 5551 5552 5553 5554 5556 5556 5558 5559 5561 5562 5565 5566 5569 5571 5572 5575 5580 5581 5577 5584 5584 5587
5514 5513 5514 5517 5519 5523 5526 5529 5531 5534 5536 5538 5539 5540 5539 5540 5541 5542 5542 5542 5543 5544 5545 5546 5546 5548 5549 5550 5550 5550 5550 5554 5555 5555 5559 5560 5560 5564 5564 5565 5568 5569 5568 5572
5510 5514 5515 5517 5520 5523 5525 5528 5530 5532 5532 5533 5534 5534 5534 5536 5536 5537 5536 5536 5537 5537 5538 5539 5540 5541 5542 5543 5545 5545 5546 5547 5548 5547 5547 5549 5550 5553 5555 5556 5556 5556 5559 5560
5509 5512 5514 5517 5519 5522 5523 5525 5525 5525 5526 5527 5528 5529 5529 5530 5530 5531 5531 5531 5532 5533 5533 5532 5533 5535 5537 5537 5538 5539 5538 5539 5539 5539 5538 5540 5542 5544 5543 5544 5544 5545 5548 5549
5511 5512 5515 5516 5518 5520 5522 5522 5522 5521 5522 5523 5523 5523 5524 5524 5525 5526 5527 5526 5526 5527 5527 5527 5527 5528 5529 5530 5531 5532 5532 5532 5532 5532 5532 5532 5533 5534 5535 5536 5536 5536 5538 5538
5509 5512 5515 5518 5519 5520 5520 5518 5518 5520 5520 5521 5520 5521 5521 5521 5521 5521 5522 5521 5521 5521 5521 5522 5522 5522 5522 5521 5522 5522 5523 5523 5523 5523 5524 5524 5525 5525 5526 5527 5527 5528 5528 5528
5506 5509 5512 5514 5516 5517 5517 5519 5519 5519 5517 5518 5518 5518 5518 5517 5516 5516 5515 5515 5515 5515 5514 5514 5514 5514 5515 5514 5514 5514 5514 5514 5514 5514 5515 5515 5516 5515 5515 5515 5516 5516 5516 5516
5503 5506 5510 5513 5515 5516 5517 5517 5517 5517 5515 5515 5515 5514 5513 5513 5512 5511 5511 5510 5509 5508 5507 5506 5505 5505 5505 5505 5505 5505 5504 5504 5504 5504 5504 5504 5504 5503 5503 5503 5503 5503 5503 5502
5502 5506 5509 5511 5513 5514 5515 5513 5514 5514 5513 5512 5511 5510 5509 5507 5506 5505 5504 5503 5502 5501 5500 5499 5498 5497 5496 5495 5494 5494 5493 5493 5491 5491 5492 5491 5491 5491 5490 5489 5488 5487 5487 5486
5504 5506 5508 5510 5511 5512 5512 5511 5511 5510 5508 5507 5505 5503 5501 5500 5498 5496 5495 5493 5492 5490 5488 5487 5485 5485 5485 5484 5482 5481 5480 5479 5478 5478 5477 5475 5474 5474 5473 5470 5470 5469 5468 5467
5504 5506 5507 5508 5509 5509 5508 5507 5506 5504 5501 5499 5497 5495 5492 5490 5488 5486 5483 5481 5479 5477 5475 5473 5472 5470 5469 5468 5465 5464 5464 5462 5461 5461 5459 5458 5458 5457 5455 5454 5452 5450 5448 5447
5504 5505 5505 5505 5505 5504 5503 5501 5499 5497 5495 5492 5489 5487 5484 5481 5478 5475 5471 5468 5466 5462 5459 5457 5455 5454 5452 5450 5447 5446 5445 5443 5441 5440 5438 5437 5436 5435 5434 5433 5432 5430 5429 5428
5501 5502 5502 5501 5499 5497 5496 5495 5492 5489 5487 5484 5480 5477 5474 5470 5466 5462 5457 5453 5452 5447 5442 5442 5438 5436 5434 5431 5429 5426 5425 5423 5421 5418 5417 5416 5415 5413 5410 5409 5408 5407 5406 5404
5498 5497 5497 5496 5495 5493 5491 5488 5485 5482 5479 5475 5471 5466 5462 5457 5452 5447 5443 5438 5435 5430 5426 5423 5420 5417 5415 5413 5410 5407 5406 5404 5402 5400 5397 5396 5395 5393 5391 5389 5388 5387 5385 5383
5495 5494 5493 5492 5490 5487 5484 5481 5477 5473 5469 5464 5459 5453 5448 5442 5436 5430 5424 5420 5415 5411 5407 5404 5400 5398 5395 5393 5390 5388 5386 5384 5383 5381 5379 5378 5376 5374 5373 5370 5368 5367 5363 5362
5492 5490 5489 5486 5483 5479 5476 5472 5467 5462 5457 5451 5444 5438 5431 5424 5419 5411 5405 5400 5397 5393 5388 5384 5380 5377 5375 5372 5369 5366 5365 5363 5360 5359 5357 5355 5354 5351 5350 5349 5346 5345 5343 5341
5488 5486 5482 5479 5475 5471 5466 5461 5456 5450 5444 5436 5429 5421 5413 5406 5400 5395 5389 5383 5377 5373 5368 5364 5360 5356 5353 5350 5347 5344 5342 5339 5337 5335 5334 5332 5330 5328 5327 5325 5323 5321 5319 5318
5482 5479 5476 5471 5466 5462 5457 5451 5446 5439 5432 5424 5417 5408 5398 5390 5382 5375 5368 5362 5355 5349 5346 5341 5337 5333 5330 5328 5325 5322 5319 5317 5315 5312 5310 5309 5307 5305 5304 5302 5300 5298 5297 5295
5475 5471 5467 5461 5456 5450 5445 5438 5432 5424 5415 5407 5399 5391 5384 5375 5364 5354 5347 5340 5335 5330 5325 5322 5318 5315 5311 5308 5306 5304 5301 5299 5297 5294 5293 5291 5289 5287 5286 5284 5283 5281 5280 5279